Spokane Fairchild, WA

7:12 PM PDT on July 27, 2017 (GMT -0700)
Fairchild Air Force Base

Weather History for KSKA - May, 2014

Change the Weather History Date:

Friday, May 16, 2014

  Actual Average Record
Temperature  
Mean Temperature 64 °F -  
Max Temperature 74 °F 62 °F 87 °F (2006)
Min Temperature 54 °F 41 °F 32 °F (2003)
Degree Days  
Heating Degree Days 1    
Growing Degree Days 14 (Base 50)    
Moisture  
Dew Point 45 °F    
Average Humidity 54    
Maximum Humidity 77    
Minimum Humidity 23    
Precipitation  
Precipitation 0.00 in - - ()
Sea Level Pressure  
Sea Level Pressure 29.93 in    
Wind  
Wind Speed 6 mph (SE)    
Max Wind Speed 12 mph    
Max Gust Speed -    
Visibility 10 miles    
Events Rain    
Averages and records for this station are not official NWS values.
T = Trace of Precipitation, MM = Missing Value Source: NWS Daily Summary

Daily Weather History Graph

Daily Weather History Graph

Search for Another Location

Airport or City:

Trip Planner

Search our weather history database for the weather conditions in past years. The results will help you decide how hot, cold, wet, or windy it might be!

Date:

Astronomy

May. 16, 2014 Rise Set
Actual Time 5:11 AM PDT 8:22 PM PDT
Civil Twilight 4:35 AM PDT 8:59 PM PDT
Nautical Twilight 3:47 AM PDT 9:48 PM PDT
Astronomical Twilight 2:47 AM PDT 10:48 PM PDT
Moon 10:33 PM PDT (5/16) 6:58 AM PDT (5/16)
Length of Visible Light 16h 24m
Length of Day
15h 11m
Waning Gibbous, 95% of the Moon is Illuminated
May 16
Waning Gibbous
May 21
Last Quarter
May 28
New
Jun 5
First Quarter
Jun 12
Full

Hourly Weather History & Observations

Time (PDT) Temp. Dew Point Humidity Pressure Visibility Wind Dir Wind Speed Gust Speed Precip Events Conditions
12:58 AM 61.0 °F 45.7 °F 57% 29.96 in 10.0 mi WSW 3.5 mph - N/A   Overcast
1:58 AM 59.2 °F 45.7 °F 61% 29.96 in 10.0 mi North 3.5 mph - N/A   Scattered Clouds
2:58 AM 57.2 °F 45.3 °F 65% 29.94 in 10.0 mi SE 4.6 mph - N/A   Clear
3:58 AM 55.9 °F 46.4 °F 70% 29.96 in 10.0 mi East 6.9 mph - N/A   Mostly Cloudy
4:58 AM 54.9 °F 46.4 °F 73% 29.96 in 10.0 mi SE 5.8 mph - N/A   Scattered Clouds
5:58 AM 54.3 °F 47.3 °F 77% 29.98 in 10.0 mi SE 6.9 mph - N/A   Mostly Cloudy
6:58 AM 58.1 °F 48.4 °F 70% 29.96 in 10.0 mi East 6.9 mph - N/A   Overcast
7:19 AM 59.0 °F 48.2 °F 67% 30.00 in 10.0 mi SE 4.6 mph - N/A Rain Light Rain
7:33 AM 59.0 °F 50.0 °F 72% 30.00 in 9.0 mi SSE 1.2 mph - N/A   Mostly Cloudy
7:58 AM 60.1 °F 49.1 °F 67% 29.99 in 8.0 mi SE 2.3 mph - 0.00 in   Mostly Cloudy
8:58 AM 64.2 °F 48.4 °F 56% 29.97 in 10.0 mi SSE 9.2 mph - N/A   Mostly Cloudy
9:58 AM 65.5 °F 45.7 °F 49% 29.97 in 10.0 mi SSE 8.1 mph - N/A   Scattered Clouds
10:58 AM 66.7 °F 44.2 °F 44% 29.99 in 10.0 mi SE 10.4 mph - N/A   Scattered Clouds
11:58 AM 67.5 °F 42.4 °F 40% 29.96 in 10.0 mi SSE 9.2 mph - N/A   Scattered Clouds
12:58 PM 69.8 °F 42.8 °F 38% 29.95 in 10.0 mi SE 9.2 mph - N/A   Mostly Cloudy
1:58 PM 71.6 °F 39.2 °F 31% 29.94 in 10.0 mi South 11.5 mph - N/A   Partly Cloudy
2:58 PM 73.8 °F 33.3 °F 23% 29.92 in 10.0 mi Variable 5.8 mph - N/A   Clear
3:58 PM 73.6 °F 37.8 °F 27% 29.91 in 10.0 mi SSW 8.1 mph - N/A   Clear
4:58 PM 74.3 °F 41.9 °F 31% 29.89 in 10.0 mi Variable 5.8 mph - N/A   Clear
5:58 PM 72.7 °F 41.4 °F 32% 29.87 in 10.0 mi SSE 10.4 mph - N/A   Mostly Cloudy
6:28 PM 71.6 °F 41.0 °F 33% 29.89 in 10.0 mi South 10.4 mph - N/A Rain Light Rain
6:47 PM 66.2 °F 46.4 °F 49% 29.88 in 10.0 mi SE 8.1 mph - N/A   Mostly Cloudy
6:58 PM 66.0 °F 47.5 °F 51% 29.87 in 10.0 mi ESE 8.1 mph - 0.00 in   Overcast
7:58 PM 65.1 °F 48.6 °F 55% 29.88 in 10.0 mi NNW 10.4 mph - N/A   Overcast
8:58 PM 61.5 °F 48.6 °F 62% 29.90 in 10.0 mi NNE 4.6 mph - N/A   Overcast
9:58 PM 60.4 °F 48.0 °F 64% 29.90 in 10.0 mi East 4.6 mph - N/A   Overcast
10:58 PM 56.5 °F 48.7 °F 75% 29.89 in 10.0 mi SE 3.5 mph - N/A   Mostly Cloudy
11:58 PM 57.7 °F 45.5 °F 64% 29.88 in 10.0 mi SSE 4.6 mph - N/A   Overcast